| time (UTC) | temp F | wind direction | speed MPH | gust MPH | rain 1hr in | rain 24hr in | rain mn in | humidity % | barometer mb |
| 20260906191503 | 94 | 130 | 2.0 | 6.0 | 0.00 | 0.17 | 0.00 | 58 | 1011.9 |
| 20260906191003 | 94 | 146 | 2.0 | 5.0 | 0.00 | 0.17 | 0.00 | 61 | 1012.0 |
| 20260906190504 | 95 | 151 | 3.0 | 6.0 | 0.00 | 0.17 | 0.00 | 68 | 1012.0 |
| 20260906190004 | 94 | 139 | 3.0 | 6.0 | 0.00 | 0.17 | 0.00 | 62 | 1012.0 |
| 20260906185524 | 94 | 114 | 2.0 | 5.0 | 0.00 | 0.17 | 0.00 | 64 | 1012.0 |
| 20260906185025 | 93 | 68 | 2.0 | 4.0 | 0.00 | 0.17 | 0.00 | 64 | 1012.0 |
| 20260906184524 | 93 | 126 | 2.0 | 5.0 | 0.00 | 0.17 | 0.00 | 64 | 1012.1 |
| 20260906184003 | 93 | 156 | 2.0 | 5.0 | 0.00 | 0.17 | 0.00 | 64 | 1012.1 |
| 20260906183505 | 93 | 181 | 2.0 | 4.0 | 0.00 | 0.17 | 0.00 | 66 | 1012.3 |
| 20260906183003 | 91 | 214 | 2.0 | 4.0 | 0.00 | 0.18 | 0.00 | 70 | 1012.3 |
| 20260906182525 | 90 | 249 | 1.0 | 3.0 | 0.00 | 0.18 | 0.00 | 74 | 1012.4 |
| 20260906182003 | 89 | 359 | 1.0 | 2.0 | 0.00 | 0.18 | 0.00 | 76 | 1012.5 |
| 20260906181524 | 89 | 1 | 1.0 | 3.0 | 0.00 | 0.20 | 0.00 | 74 | 1012.6 |
| 20260906181003 | 90 | 351 | 2.0 | 4.0 | 0.00 | 0.26 | 0.00 | 72 | 1012.7 |
| 20260906180524 | 91 | 337 | 1.0 | 4.0 | 0.00 | 0.42 | 0.00 | 72 | 1012.9 |
| 20260906180024 | 91 | 313 | 1.0 | 3.0 | 0.00 | 0.45 | 0.00 | 73 | 1013.0 |
| 20260906175503 | 89 | 353 | 1.0 | 4.0 | 0.00 | 0.58 | 0.00 | 76 | 1013.2 |
| 20260906175003 | 88 | 3 | 2.0 | 4.0 | 0.00 | 0.61 | 0.00 | 77 | 1013.2 |
| 20260906174504 | 89 | 7 | 2.0 | 4.0 | 0.00 | 0.69 | 0.00 | 76 | 1013.3 |
| 20260906174003 | 90 | 38 | 2.0 | 5.0 | 0.00 | 0.69 | 0.00 | 77 | 1013.3 |
| 20260906173503 | 90 | 102 | 2.0 | 5.0 | 0.00 | 0.69 | 0.00 | 78 | 1013.5 |
| 20260906173003 | 89 | 114 | 2.0 | 4.0 | 0.00 | 0.69 | 0.00 | 76 | 1013.7 |
| 20260906172503 | 87 | 319 | 1.0 | 3.0 | 0.00 | 0.69 | 0.00 | 79 | 1013.7 |
| 20260906172024 | 87 | 351 | 2.0 | 4.0 | 0.00 | 0.69 | 0.00 | 80 | 1013.9 |
| 20260906171503 | 88 | 273 | 1.0 | 4.0 | 0.00 | 0.69 | 0.00 | 78 | 1014.0 |
| 20260906171003 | 87 | 231 | 1.0 | 3.0 | 0.00 | 0.69 | 0.00 | 79 | 1014.1 |
| 20260906170503 | 88 | 349 | 1.0 | 3.0 | 0.00 | 0.69 | 0.00 | 80 | 1014.1 |
| 20260906170003 | 88 | 230 | 1.0 | 4.0 | 0.00 | 0.69 | 0.00 | 80 | 1014.2 |
| 20260906165503 | 86 | 253 | 1.0 | 4.0 | 0.00 | 0.69 | 0.00 | 81 | 1014.3 |
| 20260906165003 | 86 | 348 | 1.0 | 4.0 | 0.00 | 0.69 | 0.00 | 84 | 1014.2 |
| 20260906164503 | 84 | 340 | 1.0 | 3.0 | 0.00 | 0.69 | 0.00 | 83 | 1014.2 |
| 20260906164003 | 85 | 45 | 1.0 | 3.0 | 0.00 | 0.69 | 0.00 | 84 | 1014.3 |
| 20260906163503 | 86 | 82 | 2.0 | 4.0 | 0.00 | 0.69 | 0.00 | 83 | 1014.4 |
| 20260906163004 | 86 | 52 | 2.0 | 4.0 | 0.00 | 0.69 | 0.00 | 82 | 1014.4 |
| 20260906162503 | 86 | 360 | 2.0 | 4.0 | 0.00 | 0.69 | 0.00 | 82 | 1014.3 |
| 20260906162003 | 86 | 298 | 2.0 | 3.0 | 0.00 | 0.69 | 0.00 | 85 | 1014.4 |
| 20260906161503 | 85 | 17 | 2.0 | 4.0 | 0.00 | 0.69 | 0.00 | 84 | 1014.4 |
| 20260906161003 | 85 | 65 | 2.0 | 4.0 | 0.00 | 0.69 | 0.00 | 84 | 1014.4 |
| 20260906160503 | 84 | 8 | 2.0 | 3.0 | 0.00 | 0.69 | 0.00 | 86 | 1014.4 |
| 20260906160004 | 83 | 304 | 1.0 | 3.0 | 0.00 | 0.69 | 0.00 | 90 | 1014.4 |
| 20260906155525 | 83 | 327 | 1.0 | 4.0 | 0.00 | 0.69 | 0.00 | 92 | 1014.4 |
| 20260906155003 | 82 | 39 | 2.0 | 4.0 | 0.00 | 0.69 | 0.00 | 92 | 1014.4 |
| 20260906154525 | 81 | 39 | 1.0 | 3.0 | 0.00 | 0.69 | 0.00 | 95 | 1014.3 |
| 20260906154025 | 81 | 25 | 1.0 | 3.0 | 0.00 | 0.69 | 0.00 | 96 | 1014.4 |
| 20260906153503 | 79 | 6 | 1.0 | 3.0 | 0.00 | 0.69 | 0.00 | 96 | 1014.3 |
| 20260906153025 | 79 | 312 | 1.0 | 2.0 | 0.00 | 0.69 | 0.00 | 96 | 1014.3 |
| 20260906152503 | 79 | 317 | 1.0 | 2.0 | 0.00 | 0.69 | 0.00 | 96 | 1014.3 |
| 20260906152003 | 79 | 358 | 1.0 | 2.0 | 0.00 | 0.69 | 0.00 | 96 | 1014.3 |
| 20260906151504 | 79 | 29 | 1.0 | 3.0 | 0.00 | 0.69 | 0.00 | 96 | 1014.3 |
| 20260906151003 | 78 | 18 | 1.0 | 3.0 | 0.00 | 0.69 | 0.00 | 96 | 1014.3 |
| 20260906150503 | 78 | 333 | 1.0 | 2.0 | 0.00 | 0.69 | 0.00 | 96 | 1014.2 |
| 20260906150003 | 78 | 310 | 1.0 | 2.0 | 0.00 | 0.69 | 0.00 | 96 | 1014.1 |
| 20260906145524 | 78 | 319 | 1.0 | 2.0 | 0.00 | 0.69 | 0.00 | 96 | 1014.1 |
| 20260906145003 | 77 | 138 | 1.0 | 3.0 | 0.00 | 0.69 | 0.00 | 96 | 1014.1 |
| 20260906144503 | 77 | 144 | 1.0 | 3.0 | 0.00 | 0.69 | 0.00 | 96 | 1014.0 |
| 20260906144024 | 77 | 121 | 1.0 | 3.0 | 0.00 | 0.69 | 0.00 | 96 | 1014.0 |
| 20260906143524 | 76 | 38 | 1.0 | 3.0 | 0.00 | 0.69 | 0.00 | 96 | 1014.0 |
| 20260906143003 | 76 | 31 | 1.0 | 2.0 | 0.00 | 0.69 | 0.00 | 96 | 1013.9 |
| 20260906142503 | 76 | 42 | 1.0 | 2.0 | 0.00 | 0.69 | 0.00 | 96 | 1014.0 |
| 20260906142003 | 76 | 65 | 1.0 | 2.0 | 0.00 | 0.69 | 0.00 | 96 | 1014.0 |
| 20260906141524 | 76 | 32 | 1.0 | 2.0 | 0.00 | 0.69 | 0.00 | 96 | 1014.1 |
| 20260906141024 | 76 | 17 | 1.0 | 2.0 | 0.00 | 0.69 | 0.00 | 96 | 1014.2 |
| 20260906140503 | 76 | 9 | 1.0 | 2.0 | 0.00 | 0.69 | 0.00 | 96 | 1014.3 |
| 20260906140003 | 75 | 1 | 1.0 | 2.0 | 0.00 | 0.69 | 0.00 | 96 | 1014.3 |
| 20260906135503 | 75 | 9 | 1.0 | 2.0 | 0.00 | 0.69 | 0.00 | 96 | 1014.3 |
| 20260906135003 | 75 | 9 | 1.0 | 2.0 | 0.00 | 0.69 | 0.00 | 96 | 1014.3 |
| 20260906134503 | 75 | 16 | 1.0 | 2.0 | 0.00 | 0.69 | 0.00 | 96 | 1014.3 |
| 20260906134003 | 75 | 14 | 1.0 | 2.0 | 0.00 | 0.69 | 0.00 | 96 | 1014.3 |
| 20260906133503 | 75 | 39 | 1.0 | 2.0 | 0.00 | 0.69 | 0.00 | 96 | 1014.3 |
| 20260906133003 | 75 | 65 | 1.0 | 2.0 | 0.00 | 0.69 | 0.00 | 96 | 1014.3 |
| 20260906132504 | 75 | 140 | 1.0 | 3.0 | 0.00 | 0.69 | 0.00 | 96 | 1014.2 |
| 20260906132003 | 75 | 144 | 1.0 | 3.0 | 0.00 | 0.69 | 0.00 | 96 | 1014.1 |
| 20260906131524 | 75 | 126 | 1.0 | 3.0 | 0.00 | 0.69 | 0.00 | 96 | 1013.9 |
| 20260906131024 | 75 | 113 | 1.0 | 2.0 | 0.00 | 0.69 | 0.00 | 96 | 1013.8 |
| 20260906130503 | 74 | 104 | 1.0 | 3.0 | 0.00 | 0.69 | 0.00 | 96 | 1013.7 |
| 20260906130003 | 74 | 44 | 1.0 | 3.0 | 0.00 | 0.69 | 0.00 | 96 | 1013.7 |
| 20260906125503 | 74 | 41 | 1.0 | 3.0 | 0.00 | 0.69 | 0.00 | 96 | 1013.7 |
| 20260906125003 | 74 | 26 | 0.0 | 2.0 | 0.00 | 0.69 | 0.00 | 96 | 1013.7 |
| 20260906124524 | 74 | 29 | 0.0 | 2.0 | 0.00 | 0.69 | 0.00 | 96 | 1013.6 |
| 20260906124024 | 74 | 40 | 1.0 | 2.0 | 0.00 | 0.69 | 0.00 | 96 | 1013.4 |
| 20260906123503 | 74 | 27 | 1.0 | 2.0 | 0.00 | 0.69 | 0.00 | 96 | 1013.4 |
| 20260906123024 | 74 | 3 | 1.0 | 2.0 | 0.00 | 0.69 | 0.00 | 96 | 1013.3 |
| 20260906122524 | 74 | 19 | 1.0 | 2.0 | 0.00 | 0.69 | 0.00 | 96 | 1013.3 |
| 20260906122024 | 74 | 28 | 1.0 | 2.0 | 0.00 | 0.69 | 0.00 | 96 | 1013.3 |
| 20260906121503 | 74 | 61 | 0.0 | 2.0 | 0.00 | 0.69 | 0.00 | 96 | 1013.3 |
| 20260906121003 | 74 | 85 | 0.0 | 1.0 | 0.00 | 0.69 | 0.00 | 96 | 1013.3 |
| 20260906120503 | 74 | 85 | 0.0 | 1.0 | 0.00 | 0.69 | 0.00 | 96 | 1013.3 |
| 20260906120004 | 74 | 112 | 1.0 | 2.0 | 0.00 | 0.69 | 0.00 | 96 | 1013.2 |
| 20260906115524 | 74 | 110 | 0.0 | 2.0 | 0.00 | 0.69 | 0.00 | 95 | 1013.2 |
| 20260906115003 | 74 | 54 | 0.0 | 1.0 | 0.00 | 0.69 | 0.00 | 95 | 1013.3 |
| 20260906114503 | 74 | 22 | 0.0 | 1.0 | 0.00 | 0.69 | 0.00 | 96 | 1013.1 |
| 20260906114003 | 74 | 31 | 0.0 | 1.0 | 0.00 | 0.69 | 0.00 | 96 | 1013.1 |
| 20260906113503 | 74 | 39 | 1.0 | 1.0 | 0.00 | 0.69 | 0.00 | 95 | 1013.1 |
| 20260906113003 | 74 | 57 | 1.0 | 1.0 | 0.00 | 0.69 | 0.00 | 95 | 1013.0 |
| 20260906112503 | 74 | 79 | 0.0 | 1.0 | 0.00 | 0.69 | 0.00 | 95 | 1013.0 |
| 20260906112003 | 74 | 35 | 0.0 | 1.0 | 0.00 | 0.69 | 0.00 | 95 | 1012.9 |
| 20260906111503 | 74 | 356 | 0.0 | 1.0 | 0.00 | 0.69 | 0.00 | 95 | 1012.8 |
| 20260906111024 | 74 | 349 | 0.0 | 2.0 | 0.00 | 0.69 | 0.00 | 96 | 1012.7 |
| 20260906110504 | 74 | 350 | 0.0 | 2.0 | 0.00 | 0.69 | 0.00 | 96 | 1012.7 |
| 20260906110004 | 74 | 11 | 0.0 | 2.0 | 0.00 | 0.69 | 0.00 | 96 | 1012.7 |
| 20260906105504 | 74 | 18 | 0.0 | 1.0 | 0.00 | 0.69 | 0.00 | 96 | 1012.7 |
| 20260906105004 | 74 | 354 | 0.0 | 1.0 | 0.00 | 0.69 | 0.00 | 96 | 1012.7 |
| 20260906104504 | 74 | 356 | 0.0 | 1.0 | 0.00 | 0.69 | 0.00 | 96 | 1012.6 |
| 20260906104004 | 74 | 54 | 0.0 | 1.0 | 0.00 | 0.69 | 0.00 | 96 | 1012.5 |
| 20260906103525 | 74 | 57 | 0.0 | 1.0 | 0.00 | 0.69 | 0.00 | 96 | 1012.4 |
| 20260906103004 | 74 | 49 | 0.0 | 1.0 | 0.00 | 0.69 | 0.00 | 95 | 1012.5 |
| 20260906102504 | 74 | 35 | 0.0 | 1.0 | 0.00 | 0.69 | 0.00 | 96 | 1012.4 |
| 20260906102004 | 74 | 24 | 0.0 | 1.0 | 0.00 | 0.69 | 0.00 | 95 | 1012.4 |
| 20260906101504 | 74 | 352 | 0.0 | 2.0 | 0.00 | 0.69 | 0.00 | 95 | 1012.4 |
| 20260906101025 | 74 | 351 | 0.0 | 2.0 | 0.00 | 0.69 | 0.00 | 95 | 1012.4 |
| 20260906100525 | 74 | 353 | 0.0 | 2.0 | 0.00 | 0.69 | 0.00 | 95 | 1012.3 |
| 20260906100025 | 74 | 11 | 1.0 | 2.0 | 0.00 | 0.69 | 0.00 | 95 | 1012.3 |
| 20260906095525 | 74 | 36 | 1.0 | 2.0 | 0.00 | 0.69 | 0.00 | 95 | 1012.3 |
| 20260906095004 | 74 | 64 | 0.0 | 2.0 | 0.00 | 0.69 | 0.00 | 95 | 1012.3 |
| 20260906094504 | 74 | 67 | 0.0 | 1.0 | 0.00 | 0.69 | 0.00 | 95 | 1012.3 |
| 20260906094004 | 74 | 178 | 0.0 | 1.0 | 0.00 | 0.69 | 0.00 | 95 | 1012.2 |
| 20260906093504 | 74 | 194 | 1.0 | 3.0 | 0.00 | 0.69 | 0.00 | 95 | 1012.1 |
| 20260906093004 | 74 | 197 | 1.0 | 3.0 | 0.00 | 0.69 | 0.00 | 95 | 1012.1 |
| 20260906092504 | 75 | 200 | 1.0 | 2.0 | 0.00 | 0.69 | 0.00 | 95 | 1012.0 |
| 20260906092004 | 75 | 200 | 1.0 | 2.0 | 0.00 | 0.69 | 0.00 | 95 | 1012.0 |
| 20260906091525 | 75 | 199 | 1.0 | 2.0 | 0.00 | 0.69 | 0.00 | 95 | 1012.0 |
| 20260906091004 | 75 | 197 | 0.0 | 2.0 | 0.00 | 0.69 | 0.00 | 95 | 1012.0 |
| 20260906090504 | 75 | 29 | 0.0 | 1.0 | 0.00 | 0.69 | 0.00 | 95 | 1012.1 |
| 20260906090004 | 75 | 124 | 0.0 | 2.0 | 0.00 | 0.69 | 0.00 | 95 | 1012.2 |
| 20260906085504 | 75 | 127 | 1.0 | 2.0 | 0.00 | 0.69 | 0.00 | 95 | 1012.1 |
| 20260906085025 | 75 | 131 | 1.0 | 2.0 | 0.00 | 0.69 | 0.00 | 95 | 1012.1 |
| 20260906084504 | 75 | 148 | 1.0 | 2.0 | 0.00 | 0.69 | 0.00 | 95 | 1012.0 |
| 20260906084004 | 75 | 150 | 1.0 | 2.0 | 0.00 | 0.69 | 0.00 | 95 | 1012.0 |
| 20260906083504 | 75 | 161 | 1.0 | 2.0 | 0.00 | 0.69 | 0.00 | 95 | 1012.1 |
| 20260906083025 | 75 | 192 | 1.0 | 2.0 | 0.00 | 0.69 | 0.00 | 95 | 1012.1 |
| 20260906082504 | 75 | 228 | 1.0 | 2.0 | 0.00 | 0.69 | 0.00 | 95 | 1012.0 |
| 20260906082004 | 75 | 239 | 1.0 | 2.0 | 0.00 | 0.69 | 0.00 | 95 | 1012.0 |
| 20260906081504 | 75 | 212 | 1.0 | 3.0 | 0.00 | 0.69 | 0.00 | 95 | 1012.1 |
| 20260906081004 | 75 | 205 | 1.0 | 3.0 | 0.00 | 0.69 | 0.00 | 95 | 1012.1 |
| 20260906080525 | 75 | 218 | 1.0 | 3.0 | 0.00 | 0.69 | 0.00 | 95 | 1012.0 |
| 20260906080025 | 75 | 256 | 1.0 | 2.0 | 0.00 | 0.69 | 0.00 | 95 | 1012.1 |
| 20260906075505 | 75 | 270 | 1.0 | 1.0 | 0.00 | 0.69 | 0.00 | 95 | 1012.3 |
| 20260906075004 | 75 | 212 | 1.0 | 2.0 | 0.00 | 0.69 | 0.00 | 95 | 1012.3 |
| 20260906074504 | 75 | 180 | 1.0 | 2.0 | 0.00 | 0.69 | 0.00 | 95 | 1012.4 |
| 20260906074004 | 75 | 185 | 1.0 | 2.0 | 0.00 | 0.69 | 0.00 | 95 | 1012.4 |
| 20260906073504 | 75 | 217 | 1.0 | 2.0 | 0.00 | 0.69 | 0.00 | 95 | 1012.4 |
| 20260906073004 | 75 | 235 | 1.0 | 2.0 | 0.00 | 0.69 | 0.00 | 95 | 1012.6 |
| 20260906072525 | 75 | 269 | 0.0 | 2.0 | 0.00 | 0.69 | 0.00 | 95 | 1012.6 |
| 20260906072004 | 75 | 13 | 0.0 | 1.0 | 0.00 | 0.69 | 0.00 | 95 | 1012.6 |
| 20260906071504 | 75 | 46 | 0.0 | 1.0 | 0.00 | 0.69 | 0.00 | 95 | 1012.6 |
| 20260906071004 | 75 | 110 | 0.0 | 1.0 | 0.00 | 0.69 | 0.00 | 95 | 1012.5 |
| 20260906070504 | 75 | 48 | 0.0 | 1.0 | 0.00 | 0.69 | 0.00 | 95 | 1012.5 |
| 20260906070025 | 75 | 26 | 0.0 | 1.0 | 0.00 | 0.69 | 0.00 | 95 | 1012.5 |
| 20260906065525 | 75 | 26 | 0.0 | 1.0 | 0.00 | 0.69 | 0.00 | 95 | 1012.5 |
| 20260906065004 | 75 | 305 | 1.0 | 2.0 | 0.00 | 0.69 | 0.00 | 95 | 1012.6 |
| 20260906064504 | 75 | 268 | 1.0 | 2.0 | 0.00 | 0.69 | 0.00 | 95 | 1012.6 |
| 20260906064004 | 75 | 249 | 0.0 | 2.0 | 0.00 | 0.69 | 0.00 | 95 | 1012.7 |
| 20260906063504 | 75 | 91 | 0.0 | 2.0 | 0.00 | 0.69 | 0.00 | 95 | 1012.7 |
| 20260906063004 | 75 | 133 | 1.0 | 2.0 | 0.00 | 0.69 | 0.00 | 95 | 1012.7 |
| 20260906062504 | 75 | 162 | 1.0 | 2.0 | 0.00 | 0.69 | 0.00 | 95 | 1012.7 |
| 20260906062004 | 75 | 99 | 1.0 | 2.0 | 0.00 | 0.69 | 0.00 | 95 | 1012.5 |
| 20260906061525 | 75 | 51 | 1.0 | 2.0 | 0.00 | 0.69 | 0.00 | 95 | 1012.6 |
| 20260906061025 | 75 | 93 | 1.0 | 2.0 | 0.00 | 0.69 | 0.00 | 95 | 1012.5 |
| 20260906060504 | 75 | 125 | 1.0 | 2.0 | 0.00 | 0.69 | 0.00 | 95 | 1012.4 |
| 20260906060004 | 75 | 157 | 1.0 | 2.0 | 0.00 | 0.69 | 0.00 | 95 | 1012.4 |
| 20260906055504 | 75 | 160 | 0.0 | 2.0 | 0.00 | 0.69 | 0.00 | 94 | 1012.3 |
| 20260906055004 | 75 | 83 | 0.0 | 1.0 | 0.00 | 0.69 | 0.00 | 94 | 1012.3 |
| 20260906054504 | 75 | 100 | 0.0 | 2.0 | 0.00 | 0.69 | 0.00 | 95 | 1012.2 |
| 20260906054025 | 75 | 137 | 1.0 | 2.0 | 0.00 | 0.69 | 0.00 | 95 | 1012.1 |
| 20260906053504 | 75 | 159 | 1.0 | 2.0 | 0.00 | 0.69 | 0.00 | 95 | 1012.0 |
| 20260906053004 | 76 | 133 | 1.0 | 2.0 | 0.00 | 0.69 | 0.00 | 95 | 1012.1 |
| 20260906052504 | 75 | 150 | 0.0 | 2.0 | 0.01 | 0.69 | 0.00 | 95 | 1012.0 |
| 20260906052004 | 76 | 172 | 0.0 | 2.0 | 0.01 | 0.69 | 0.00 | 95 | 1012.0 |
| 20260906051525 | 76 | 172 | 1.0 | 2.0 | 0.01 | 0.69 | 0.00 | 95 | 1012.0 |
| 20260906051025 | 76 | 171 | 1.0 | 2.0 | 0.01 | 0.69 | 0.00 | 94 | 1011.9 |
| 20260906050504 | 76 | 170 | 0.0 | 2.0 | 0.01 | 0.69 | 0.00 | 94 | 1011.8 |
| 20260906050004 | 76 | 106 | 0.0 | 2.0 | 0.01 | 0.69 | 0.00 | 94 | 1011.8 |
| 20260906045504 | 76 | 77 | 1.0 | 3.0 | 0.01 | 0.69 | 0.69 | 94 | 1011.8 |
| 20260906045004 | 76 | 41 | 1.0 | 3.0 | 0.01 | 0.69 | 0.69 | 94 | 1011.9 |
| 20260906044504 | 76 | 344 | 0.0 | 2.0 | 0.01 | 0.69 | 0.69 | 94 | 1011.8 |
| 20260906044004 | 76 | 335 | 1.0 | 2.0 | 0.01 | 0.69 | 0.69 | 94 | 1011.8 |
| 20260906043504 | 76 | 315 | 1.0 | 2.0 | 0.01 | 0.69 | 0.69 | 94 | 1011.7 |
| 20260906043004 | 76 | 320 | 1.0 | 2.0 | 0.01 | 0.69 | 0.69 | 94 | 1011.7 |
| 20260906042525 | 76 | 333 | 1.0 | 2.0 | 0.00 | 0.68 | 0.68 | 94 | 1011.7 |
| 20260906042004 | 76 | 257 | 1.0 | 3.0 | 0.00 | 0.68 | 0.68 | 94 | 1011.6 |
| 20260906041504 | 76 | 237 | 1.0 | 3.0 | 0.00 | 0.68 | 0.68 | 94 | 1011.6 |
| 20260906041004 | 76 | 203 | 1.0 | 3.0 | 0.00 | 0.68 | 0.68 | 94 | 1011.7 |
| 20260906040504 | 76 | 196 | 2.0 | 3.0 | 0.00 | 0.68 | 0.68 | 94 | 1011.6 |
| 20260906040004 | 76 | 198 | 2.0 | 3.0 | 0.00 | 0.68 | 0.68 | 94 | 1011.8 |
| 20260906035504 | 76 | 204 | 2.0 | 3.0 | 0.00 | 0.68 | 0.68 | 94 | 1011.8 |
| 20260906035004 | 76 | 213 | 1.0 | 3.0 | 0.00 | 0.68 | 0.68 | 94 | 1011.6 |
| 20260906034504 | 76 | 215 | 1.0 | 2.0 | 0.00 | 0.68 | 0.68 | 94 | 1011.8 |
| 20260906034025 | 76 | 205 | 1.0 | 3.0 | 0.00 | 0.68 | 0.68 | 94 | 1011.9 |
| 20260906033525 | 76 | 192 | 1.0 | 3.0 | 0.00 | 0.68 | 0.68 | 94 | 1011.8 |
| 20260906033025 | 77 | 181 | 1.0 | 2.0 | 0.00 | 0.68 | 0.68 | 94 | 1011.7 |
| 20260906032506 | 76 | 164 | 1.0 | 2.0 | 0.00 | 0.68 | 0.68 | 94 | 1011.6 |
| 20260906032004 | 76 | 115 | 1.0 | 2.0 | 0.00 | 0.68 | 0.68 | 94 | 1011.5 |
| 20260906031525 | 77 | 44 | 0.0 | 2.0 | 0.00 | 0.68 | 0.68 | 94 | 1011.4 |
| 20260906031004 | 76 | 42 | 0.0 | 2.0 | 0.00 | 0.68 | 0.68 | 94 | 1011.3 |
| 20260906030504 | 77 | 190 | 1.0 | 3.0 | 0.00 | 0.68 | 0.68 | 93 | 1011.2 |
| 20260906030004 | 77 | 175 | 2.0 | 3.0 | 0.00 | 0.68 | 0.68 | 94 | 1011.1 |
| 20260906025525 | 77 | 173 | 1.0 | 3.0 | 0.00 | 0.68 | 0.68 | 93 | 1011.1 |
| 20260906025004 | 76 | 289 | 0.0 | 2.0 | 0.00 | 0.68 | 0.68 | 93 | 1011.1 |
| 20260906024525 | 76 | 290 | 0.0 | 2.0 | 0.00 | 0.68 | 0.68 | 93 | 1011.2 |
| 20260906024004 | 76 | 73 | 0.0 | 1.0 | 0.00 | 0.68 | 0.68 | 93 | 1011.3 |
| 20260906023504 | 76 | 248 | 0.0 | 1.0 | 0.00 | 0.68 | 0.68 | 93 | 1011.3 |
| 20260906023004 | 77 | 235 | 0.0 | 1.0 | 0.00 | 0.68 | 0.68 | 93 | 1011.2 |
| 20260906022504 | 77 | 283 | 0.0 | 1.0 | 0.00 | 0.68 | 0.68 | 93 | 1011.3 |
| 20260906022005 | 77 | 350 | 0.0 | 1.0 | 0.00 | 0.68 | 0.68 | 93 | 1011.2 |
| 20260906021504 | 77 | 237 | 0.0 | 1.0 | 0.00 | 0.68 | 0.68 | 93 | 1011.2 |
| 20260906021004 | 77 | 232 | 0.0 | 1.0 | 0.00 | 0.68 | 0.68 | 93 | 1011.1 |
| 20260906020504 | 77 | 353 | 0.0 | 1.0 | 0.00 | 0.68 | 0.68 | 93 | 1011.2 |
| 20260906020025 | 77 | 28 | 0.0 | 1.0 | 0.00 | 0.68 | 0.68 | 93 | 1011.2 |
| 20260906015504 | 77 | 39 | 0.0 | 1.0 | 0.00 | 0.68 | 0.68 | 93 | 1011.2 |
| 20260906015004 | 77 | 132 | 1.0 | 2.0 | 0.00 | 0.68 | 0.68 | 93 | 1011.2 |
| 20260906014504 | 77 | 131 | 1.0 | 2.0 | 0.01 | 0.68 | 0.68 | 93 | 1011.1 |
| 20260906014004 | 77 | 83 | 0.0 | 1.0 | 0.01 | 0.68 | 0.68 | 93 | 1011.1 |
| 20260906013504 | 77 | 327 | 0.0 | 1.0 | 0.01 | 0.68 | 0.68 | 93 | 1011.1 |
| 20260906013004 | 77 | 351 | 1.0 | 2.0 | 0.01 | 0.68 | 0.68 | 93 | 1011.1 |
| 20260906012504 | 77 | 4 | 1.0 | 2.0 | 0.02 | 0.68 | 0.68 | 92 | 1011.2 |
| 20260906012004 | 77 | 26 | 0.0 | 1.0 | 0.02 | 0.68 | 0.68 | 92 | 1011.2 |
| 20260906011504 | 77 | 247 | 0.0 | 1.0 | 0.02 | 0.68 | 0.68 | 92 | 1011.2 |
| 20260906011025 | 77 | 224 | 0.0 | 1.0 | 0.03 | 0.68 | 0.68 | 92 | 1011.3 |
| 20260906010504 | 77 | 6 | 0.0 | 1.0 | 0.04 | 0.68 | 0.68 | 92 | 1011.4 |
| 20260906010025 | 77 | 309 | 0.0 | 2.0 | 0.04 | 0.68 | 0.68 | 92 | 1011.5 |
| 20260906005525 | 78 | 302 | 1.0 | 2.0 | 0.05 | 0.68 | 0.68 | 92 | 1011.5 |
| 20260906005004 | 78 | 334 | 1.0 | 1.0 | 0.05 | 0.68 | 0.68 | 92 | 1011.6 |
| 20260906004504 | 78 | 360 | 0.0 | 1.0 | 0.05 | 0.67 | 0.67 | 92 | 1011.8 |
| 20260906004004 | 78 | 6 | 0.0 | 1.0 | 0.05 | 0.67 | 0.67 | 92 | 1011.8 |
| 20260906003504 | 78 | 274 | 0.0 | 1.0 | 0.05 | 0.67 | 0.67 | 92 | 1011.9 |
| 20260906003004 | 78 | 323 | 0.0 | 2.0 | 0.05 | 0.67 | 0.67 | 92 | 1011.9 |
| 20260906002504 | 78 | 2 | 0.0 | 2.0 | 0.05 | 0.66 | 0.66 | 92 | 1012.1 |
| 20260906002004 | 78 | 24 | 1.0 | 2.0 | 0.05 | 0.66 | 0.66 | 92 | 1012.2 |
| 20260906001525 | 78 | 129 | 1.0 | 2.0 | 0.05 | 0.66 | 0.66 | 92 | 1012.3 |
| 20260906001004 | 78 | 110 | 1.0 | 2.0 | 0.05 | 0.65 | 0.65 | 92 | 1012.2 |
| 20260906000504 | 78 | 61 | 0.0 | 2.0 | 0.05 | 0.64 | 0.64 | 92 | 1012.2 |
| 20260906000003 | 78 | 62 | 0.0 | 2.0 | 0.06 | 0.64 | 0.64 | 91 | 1012.1 |
| 20260905235524 | 78 | 65 | 1.0 | 2.0 | 0.06 | 0.63 | 0.64 | 91 | 1012.0 |
| 20260905235004 | 79 | 142 | 1.0 | 3.0 | 0.07 | 0.63 | 0.63 | 91 | 1011.9 |
| 20260905234504 | 79 | 172 | 1.0 | 3.0 | 0.06 | 0.62 | 0.62 | 91 | 1011.9 |
| 20260905234004 | 79 | 174 | 1.0 | 2.0 | 0.07 | 0.62 | 0.62 | 91 | 1011.9 |
| 20260905233504 | 79 | 165 | 1.0 | 3.0 | 0.07 | 0.62 | 0.62 | 91 | 1011.9 |
| 20260905233004 | 79 | 166 | 1.0 | 3.0 | 0.07 | 0.62 | 0.62 | 91 | 1011.8 |
| 20260905232503 | 79 | 133 | 1.0 | 2.0 | 0.06 | 0.61 | 0.61 | 91 | 1011.8 |
| 20260905232004 | 79 | 61 | 1.0 | 2.0 | 0.06 | 0.61 | 0.61 | 91 | 1012.0 |
| 20260905231504 | 79 | 107 | 1.0 | 3.0 | 0.06 | 0.61 | 0.61 | 91 | 1012.0 |
| 20260905231004 | 79 | 135 | 1.0 | 3.0 | 0.06 | 0.60 | 0.60 | 91 | 1011.9 |
| 20260905230504 | 79 | 151 | 1.0 | 4.0 | 0.06 | 0.59 | 0.59 | 91 | 1012.0 |
| 20260905230025 | 79 | 130 | 2.0 | 4.0 | 0.06 | 0.58 | 0.58 | 90 | 1012.1 |
| 20260905225525 | 80 | 61 | 1.0 | 3.0 | 0.05 | 0.57 | 0.57 | 90 | 1012.2 |
| 20260905225004 | 80 | 88 | 1.0 | 3.0 | 0.04 | 0.56 | 0.56 | 90 | 1012.2 |
| 20260905224504 | 80 | 133 | 1.0 | 2.0 | 0.04 | 0.56 | 0.56 | 90 | 1012.0 |
| 20260905224004 | 80 | 107 | 1.0 | 2.0 | 0.03 | 0.55 | 0.55 | 90 | 1012.0 |
| 20260905223504 | 80 | 97 | 1.0 | 2.0 | 0.03 | 0.55 | 0.55 | 89 | 1012.0 |
| 20260905223025 | 80 | 109 | 1.0 | 3.0 | 0.03 | 0.55 | 0.55 | 89 | 1011.9 |
| 20260905222504 | 80 | 96 | 0.0 | 3.0 | 0.03 | 0.55 | 0.55 | 89 | 1011.9 |
| 20260905222003 | 80 | 24 | 0.0 | 2.0 | 0.03 | 0.55 | 0.55 | 89 | 1011.9 |
| 20260905221504 | 81 | 46 | 1.0 | 2.0 | 0.03 | 0.55 | 0.55 | 88 | 1011.9 |
| 20260905221004 | 81 | 93 | 1.0 | 2.0 | 0.02 | 0.54 | 0.54 | 88 | 1012.0 |
| 20260905220503 | 81 | 91 | 1.0 | 2.0 | 0.01 | 0.53 | 0.53 | 88 | 1012.0 |
| 20260905220004 | 82 | 67 | 1.0 | 2.0 | 0.00 | 0.52 | 0.52 | 87 | 1012.1 |
| 20260905215524 | 82 | 58 | 1.0 | 2.0 | 0.00 | 0.52 | 0.52 | 86 | 1012.1 |
| 20260905215003 | 82 | 97 | 1.0 | 2.0 | 0.00 | 0.52 | 0.52 | 86 | 1012.2 |
| 20260905214504 | 83 | 98 | 1.0 | 3.0 | 0.00 | 0.52 | 0.52 | 85 | 1012.2 |
| 20260905214003 | 83 | 110 | 1.0 | 3.0 | 0.00 | 0.52 | 0.52 | 84 | 1012.1 |
| 20260905213504 | 84 | 100 | 1.0 | 2.0 | 0.00 | 0.52 | 0.52 | 83 | 1012.1 |
| 20260905213003 | 84 | 83 | 1.0 | 2.0 | 0.00 | 0.52 | 0.52 | 82 | 1012.1 |
| 20260905212503 | 84 | 121 | 1.0 | 2.0 | 0.00 | 0.52 | 0.52 | 80 | 1012.0 |
| 20260905212003 | 84 | 132 | 1.0 | 2.0 | 0.00 | 0.52 | 0.52 | 79 | 1012.1 |
| 20260905211503 | 84 | 119 | 1.0 | 2.0 | 0.00 | 0.52 | 0.52 | 78 | 1012.1 |
| 20260905211003 | 84 | 41 | 2.0 | 3.0 | 0.00 | 0.52 | 0.52 | 80 | 1012.1 |
| 20260905210504 | 85 | 11 | 2.0 | 3.0 | 0.00 | 0.52 | 0.52 | 78 | 1012.1 |
| 20260905210004 | 86 | 181 | 1.0 | 4.0 | 0.00 | 0.52 | 0.52 | 79 | 1012.1 |
| 20260905205524 | 87 | 200 | 2.0 | 5.0 | 0.00 | 0.52 | 0.52 | 78 | 1012.0 |
| 20260905205003 | 87 | 230 | 1.0 | 5.0 | 0.00 | 0.52 | 0.52 | 77 | 1011.9 |
| 20260905204503 | 87 | 193 | 1.0 | 3.0 | 0.00 | 0.52 | 0.52 | 79 | 1011.9 |
| 20260905204004 | 87 | 205 | 2.0 | 4.0 | 0.00 | 0.52 | 0.52 | 79 | 1012.0 |
| 20260905203524 | 86 | 224 | 2.0 | 4.0 | 0.00 | 0.52 | 0.52 | 79 | 1012.0 |
| 20260905203003 | 86 | 234 | 1.0 | 4.0 | 0.00 | 0.52 | 0.52 | 79 | 1012.0 |
| 20260905202503 | 86 | 234 | 1.0 | 3.0 | 0.00 | 0.52 | 0.52 | 81 | 1012.0 |
| 20260905202024 | 85 | 247 | 1.0 | 3.0 | 0.00 | 0.52 | 0.52 | 82 | 1012.0 |
| 20260905201504 | 85 | 257 | 1.0 | 3.0 | 0.00 | 0.52 | 0.52 | 83 | 1012.1 |
| 20260905201003 | 85 | 337 | 1.0 | 3.0 | 0.00 | 0.52 | 0.52 | 82 | 1012.2 |
| 20260905200503 | 85 | 347 | 1.0 | 2.0 | 0.00 | 0.52 | 0.52 | 83 | 1012.4 |
| 20260905200004 | 86 | 312 | 1.0 | 4.0 | 0.00 | 0.52 | 0.52 | 83 | 1012.4 |
| 20260905195503 | 88 | 224 | 1.0 | 4.0 | 0.00 | 0.52 | 0.52 | 81 | 1012.3 |
| 20260905195004 | 88 | 216 | 2.0 | 4.0 | 0.00 | 0.52 | 0.52 | 78 | 1012.2 |
| 20260905194524 | 89 | 215 | 2.0 | 4.0 | 0.00 | 0.52 | 0.52 | 77 | 1012.2 |
| 20260905194003 | 87 | 204 | 2.0 | 4.0 | 0.00 | 0.52 | 0.52 | 79 | 1012.3 |
| 20260905193503 | 86 | 203 | 2.0 | 4.0 | 0.00 | 0.52 | 0.52 | 83 | 1012.3 |
| 20260905193025 | 84 | 238 | 1.0 | 3.0 | 0.01 | 0.52 | 0.52 | 87 | 1012.3 |
| 20260905192503 | 83 | 2 | 1.0 | 3.0 | 0.01 | 0.52 | 0.52 | 85 | 1012.3 |
| 20260905192003 | 82 | 351 | 1.0 | 2.0 | 0.01 | 0.52 | 0.52 | 88 | 1012.1 |